When you browse on this site, cookies collect data to enhance your experience and personalize the content and advertising you see.
Visit our Privacy Policy to learn more. By continuing to use the site, you agree to this use of cookies and data.
  • In Hungary
  • List of Countries
  • For 7 days
  • Water Temperature
  • Weather Map
  • News
  • Weather Widgets
  • user-avatar
    Login

    Hourly Weather Rangpur

    Today, 31 May, Sunday

    Time Temperature Precipitation Wind Pressure Humidity
    00:00 +27°C° 0 mm 3 mps 753 mmHg 88%
    01:00 +26°C° 1.3 mm 4 mps 753 mmHg 89%
    02:00 +25°C° 1.3 mm 5 mps 753 mmHg 91%
    03:00 +24°C° 1.3 mm 6 mps 752 mmHg 92%
    04:00 +25°C° 0.7 mm 5 mps 753 mmHg 92%
    05:00 +25°C° 0.7 mm 5 mps 753 mmHg 92%
    06:00 +25°C° 0.7 mm 5 mps 753 mmHg 92%
    07:00 +26°C° 0.4 mm 5 mps 754 mmHg 89%
    08:00 +28°C° 0.4 mm 5 mps 754 mmHg 85%
    09:00 +29°C° 0.4 mm 4 mps 754 mmHg 81%
    10:00 +30°C° 0.4 mm 4 mps 754 mmHg 77%
    11:00 +31°C° 0.4 mm 3 mps 754 mmHg 74%
    12:00 +34°C° 0.4 mm 3 mps 753 mmHg 70%
    13:00 +34°C° 1.1 mm 2 mps 752 mmHg 67%
    14:00 +34°C° 1.1 mm 1 mps 752 mmHg 64%
    15:00 +34°C° 1.1 mm 1 mps 751 mmHg 62%
    16:00 +34°C° 0.4 mm 1 mps 750 mmHg 65%
    17:00 +34°C° 0.4 mm 2 mps 750 mmHg 69%
    18:00 +32°C° 0.4 mm 2 mps 750 mmHg 72%
    19:00 +31°C° 0.3 mm 3 mps 750 mmHg 76%
    20:00 +30°C° 0.3 mm 3 mps 751 mmHg 80%
    21:00 +29°C° 0.3 mm 3 mps 751 mmHg 84%
    22:00 +28°C° 2.5 mm 3 mps 751 mmHg 87%
    23:00 +27°C° 2.5 mm 3 mps 751 mmHg 89%

    Tomorrow, 1 June, Monday

    Time Temperature Precipitation Wind Pressure Humidity
    00:00 +27°C° 2.5 mm 3 mps 752 mmHg 92%
    01:00 +27°C° 0.7 mm 3 mps 751 mmHg 92%
    02:00 +27°C° 0.7 mm 3 mps 751 mmHg 93%
    03:00 +27°C° 0.7 mm 3 mps 751 mmHg 93%
    04:00 +27°C° 0.7 mm 3 mps 751 mmHg 93%
    05:00 +27°C° 0.7 mm 3 mps 751 mmHg 94%
    06:00 +27°C° 0.7 mm 2 mps 751 mmHg 94%
    07:00 +27°C° 0.7 mm 3 mps 751 mmHg 92%
    08:00 +28°C° 0.7 mm 3 mps 752 mmHg 90%
    09:00 +29°C° 0.7 mm 3 mps 752 mmHg 89%
    10:00 +30°C° 0.1 mm 3 mps 752 mmHg 86%
    11:00 +32°C° 0.1 mm 4 mps 752 mmHg 83%
    12:00 +33°C° 0.1 mm 4 mps 751 mmHg 80%
    13:00 +34°C° 1.7 mm 4 mps 751 mmHg 76%
    14:00 +35°C° 1.7 mm 4 mps 750 mmHg 71%
    15:00 +35°C° 1.7 mm 3 mps 750 mmHg 67%
    16:00 +34°C° 1.3 mm 4 mps 749 mmHg 71%
    17:00 +33°C° 1.3 mm 4 mps 749 mmHg 76%
    18:00 +32°C° 1.3 mm 4 mps 749 mmHg 80%
    19:00 +30°C° 2.2 mm 4 mps 749 mmHg 83%
    20:00 +29°C° 2.2 mm 5 mps 750 mmHg 86%
    21:00 +28°C° 2.2 mm 5 mps 750 mmHg 89%
    22:00 +28°C° 0.2 mm 4 mps 750 mmHg 90%
    23:00 +27°C° 0.2 mm 4 mps 750 mmHg 90%

    Day after tomorrow, 2 June, Tuesday

    Time Temperature Precipitation Wind Pressure Humidity
    00:00 +27°C° 0.2 mm 3 mps 751 mmHg 91%
    01:00 +27°C° 0.6 mm 3 mps 750 mmHg 92%
    02:00 +26°C° 0.6 mm 2 mps 750 mmHg 92%
    03:00 +26°C° 0.6 mm 2 mps 750 mmHg 93%
    04:00 +26°C° 0.5 mm 2 mps 750 mmHg 93%
    05:00 +26°C° 0.5 mm 3 mps 750 mmHg 94%
    06:00 +26°C° 0.5 mm 3 mps 750 mmHg 94%
    07:00 +27°C° 0.2 mm 3 mps 750 mmHg 92%
    08:00 +28°C° 0.2 mm 4 mps 751 mmHg 90%
    09:00 +29°C° 0.2 mm 4 mps 751 mmHg 89%
    10:00 +29°C° 0.1 mm 4 mps 751 mmHg 88%
    11:00 +29°C° 0.1 mm 4 mps 751 mmHg 87%
    12:00 +30°C° 0.1 mm 4 mps 750 mmHg 86%
    13:00 +31°C° 0.7 mm 3 mps 750 mmHg 84%
    14:00 +33°C° 0.7 mm 3 mps 749 mmHg 81%
    15:00 +33°C° 0.7 mm 3 mps 748 mmHg 79%
    16:00 +33°C° 0.4 mm 3 mps 748 mmHg 80%
    17:00 +33°C° 0.4 mm 3 mps 747 mmHg 81%
    18:00 +33°C° 0.4 mm 3 mps 747 mmHg 82%
    19:00 +31°C° 0.6 mm 3 mps 747 mmHg 84%
    20:00 +30°C° 0.6 mm 3 mps 748 mmHg 87%
    21:00 +29°C° 0.6 mm 3 mps 748 mmHg 89%
    22:00 +29°C° 0.4 mm 3 mps 749 mmHg 90%
    23:00 +28°C° 0.4 mm 3 mps 749 mmHg 91%

    3 June, Wednesday

    Time Temperature Precipitation Wind Pressure Humidity
    00:00 +28°C° 0.4 mm 3 mps 749 mmHg 92%
    01:00 +28°C° 0.1 mm 3 mps 748 mmHg 92%
    02:00 +27°C° 0.1 mm 3 mps 748 mmHg 92%
    03:00 +27°C° 0.1 mm 3 mps 747 mmHg 93%
    04:00 +27°C° 0 mm 4 mps 748 mmHg 93%
    05:00 +27°C° 0 mm 4 mps 748 mmHg 94%
    06:00 +27°C° 0 mm 5 mps 748 mmHg 94%
    07:00 +27°C° 0.8 mm 5 mps 749 mmHg 93%
    08:00 +28°C° 0.8 mm 5 mps 749 mmHg 91%
    09:00 +29°C° 0.8 mm 5 mps 750 mmHg 90%
    10:00 +29°C° 0.4 mm 4 mps 750 mmHg 89%
    11:00 +30°C° 0.4 mm 4 mps 750 mmHg 88%
    12:00 +30°C° 0.4 mm 4 mps 750 mmHg 87%
    13:00 +30°C° 0 mm 4 mps 749 mmHg 87%
    14:00 +30°C° 0 mm 3 mps 749 mmHg 86%
    15:00 +31°C° 0 mm 3 mps 748 mmHg 85%
    16:00 +31°C° 0.1 mm 3 mps 748 mmHg 85%
    17:00 +31°C° 0.1 mm 3 mps 748 mmHg 84%
    18:00 +31°C° 0.1 mm 3 mps 747 mmHg 84%
    19:00 +30°C° 0.7 mm 3 mps 748 mmHg 86%
    20:00 +29°C° 0.7 mm 4 mps 749 mmHg 89%
    21:00 +28°C° 0.7 mm 4 mps 749 mmHg 92%
    22:00 +27°C° 0.1 mm 4 mps 749 mmHg 92%
    23:00 +27°C° 0.1 mm 5 mps 749 mmHg 93%

    4 June, Thursday

    Time Temperature Precipitation Wind Pressure Humidity
    00:00 +27°C° 0.1 mm 5 mps 749 mmHg 93%
    01:00 +27°C° 0 mm 5 mps 749 mmHg 93%
    02:00 +27°C° 0 mm 4 mps 749 mmHg 94%
    03:00 +27°C° 0 mm 4 mps 748 mmHg 94%
    04:00 +26°C° 0.6 mm 4 mps 749 mmHg 94%
    05:00 +26°C° 0.6 mm 4 mps 749 mmHg 94%
    06:00 +26°C° 0.6 mm 4 mps 749 mmHg 94%
    07:00 +27°C° 0.1 mm 4 mps 749 mmHg 91%
    08:00 +28°C° 0.1 mm 3 mps 750 mmHg 88%
    09:00 +29°C° 0.1 mm 3 mps 750 mmHg 85%
    10:00 +31°C° 0 mm 3 mps 750 mmHg 78%
    11:00 +34°C° 0 mm 3 mps 750 mmHg 72%
    12:00 +35°C° 0 mm 3 mps 749 mmHg 66%
    13:00 +36°C° 0 mm 3 mps 749 mmHg 60%
    14:00 +37°C° 0 mm 3 mps 748 mmHg 54%
    15:00 +38°C° 0 mm 3 mps 748 mmHg 49%
    16:00 +37°C° 0 mm 3 mps 748 mmHg 55%
    17:00 +36°C° 0 mm 2 mps 747 mmHg 61%
    18:00 +35°C° 0 mm 2 mps 747 mmHg 67%
    19:00 +34°C° 0 mm 2 mps 748 mmHg 67%
    20:00 +32°C° 0 mm 1 mps 748 mmHg 68%
    21:00 +31°C° 0 mm 1 mps 749 mmHg 69%
    22:00 +31°C° 0 mm 2 mps 749 mmHg 73%
    23:00 +30°C° 0 mm 2 mps 749 mmHg 77%

    5 June, Friday

    Time Temperature Precipitation Wind Pressure Humidity
    00:00 +29°C° 0 mm 2 mps 749 mmHg 81%
    01:00 +29°C° 0 mm 2 mps 749 mmHg 83%
    02:00 +29°C° 0 mm 3 mps 749 mmHg 86%
    03:00 +28°C° 0 mm 3 mps 749 mmHg 89%
    04:00 +28°C° 0.4 mm 3 mps 749 mmHg 91%
    05:00 +28°C° 0.4 mm 3 mps 749 mmHg 92%
    06:00 +28°C° 0.4 mm 4 mps 749 mmHg 93%
    07:00 +29°C° 0 mm 4 mps 749 mmHg 88%
    08:00 +30°C° 0 mm 3 mps 750 mmHg 84%
    09:00 +31°C° 0 mm 3 mps 750 mmHg 79%
    10:00 +34°C° 0.2 mm 3 mps 750 mmHg 73%
    11:00 +35°C° 0.2 mm 2 mps 750 mmHg 67%
    12:00 +36°C° 0.2 mm 2 mps 749 mmHg 61%
    13:00 +36°C° 0.1 mm 2 mps 749 mmHg 60%
    14:00 +36°C° 0.1 mm 1 mps 748 mmHg 58%
    15:00 +36°C° 0.1 mm 1 mps 747 mmHg 56%
    16:00 +36°C° 0.1 mm 1 mps 747 mmHg 59%
    17:00 +36°C° 0.1 mm 1 mps 747 mmHg 62%
    18:00 +35°C° 0.1 mm 1 mps 747 mmHg 64%
    19:00 +34°C° 1.2 mm 1 mps 747 mmHg 71%
    20:00 +32°C° 1.2 mm 2 mps 747 mmHg 78%
    21:00 +30°C° 1.2 mm 2 mps 748 mmHg 84%
    22:00 +30°C° 0 mm 3 mps 748 mmHg 85%
    23:00 +29°C° 0 mm 3 mps 748 mmHg 86%
    Show more